This is the latest recevied weather packets stored in our database for station/object K1KOF. If no packets are shown the sender has not sent any weather packets the latest 10 day(s).
| Time | Temp. | Humidity | Pressure | Rain* | Wind** | Luminosity | Snow |
|---|---|---|---|---|---|---|---|
| 1778199739 | 22.22° C | 78% | 1020.6 hPa | 0 mm | - | 0 W/m² | - |
| 1778199434 | 22.22° C | 78% | 1020.6 hPa | 0 mm | - | 0 W/m² | - |
| 1778199130 | 22.22° C | 78% | 1020.4 hPa | 0 mm | - | 0 W/m² | - |
| 1778198826 | 22.22° C | 78% | 1020.2 hPa | 0 mm | - | 2 W/m² | - |
| 1778198523 | 22.22° C | 77% | 1020.1 hPa | 0 mm | - | 4 W/m² | - |
| 1778198219 | 22.78° C | 76% | 1020.1 hPa | 0 mm | - | 9 W/m² | - |
| 1778197917 | 22.78° C | 77% | 1019.9 hPa | 0 mm | - | 12 W/m² | - |
| 1778197614 | 22.78° C | 77% | 1019.9 hPa | 0 mm | - | 12 W/m² | - |
| 1778197310 | 22.78° C | 76% | 1019.9 hPa | 0 mm | - | 18 W/m² | - |
| 1778197007 | 23.33° C | 76% | 1019.7 hPa | 0 mm | - | 18 W/m² | - |
| 1778196706 | 23.33° C | 76% | 1019.8 hPa | 0 mm | - | 18 W/m² | - |
| 1778196402 | 23.33° C | 75% | 1019.6 hPa | 0 mm | - | 23 W/m² | - |
| 1778196099 | 23.33° C | 75% | 1019.7 hPa | 0 mm | - | 23 W/m² | - |
| 1778195796 | 23.89° C | 74% | 1019.5 hPa | 0 mm | - | 27 W/m² | - |
| 1778195493 | 23.89° C | 74% | 1019.4 hPa | 0 mm | - | 29 W/m² | - |
| 1778195189 | 23.89° C | 74% | 1019.8 hPa | 0 mm | - | 32 W/m² | - |
| 1778194886 | 23.89° C | 74% | 1019.5 hPa | 0 mm | - | 37 W/m² | - |
| 1778194580 | 24.44° C | 73% | 1019.3 hPa | 0 mm | - | 56 W/m² | - |
| 1778194277 | 24.44° C | 73% | 1019.3 hPa | 0 mm | - | 45 W/m² | - |
| 1778193973 | 24.44° C | 73% | 1019.4 hPa | 0 mm | - | 54 W/m² | - |
| 1778193670 | 25° C | 72% | 1019.5 hPa | 0 mm | - | 144 W/m² | - |
| 1778193366 | 25° C | 73% | 1019.3 hPa | 0 mm | - | 105 W/m² | - |
| 1778193063 | 25° C | 72% | 1019.2 hPa | 0 mm | - | 89 W/m² | - |
| 1778192760 | 25° C | 72% | 1019.1 hPa | 0 mm | - | 84 W/m² | - |
| 1778192456 | 25° C | 74% | 1019.1 hPa | 0 mm | - | 57 W/m² | - |
* Rain latest hour (hover to see other rain measurements)
** Current wind speed in m/s (hover to see current wind gust speed)